Location: Taukkyan
(23.1052°N, 94.0030°E)
Time: 09:59:57
(UTC+00:00)

H-2A R/B - Pass Details

Date: 06 July 2020
Orbit: 577 x 656 km, 98.5° (Epoch: 14 August)

Event Time Altitude Azimuth Distance (km) Brightness Sun altitude
Exits shadow 22:28:04 - 228° (SW) 2,100 4.1 -8.2°
Reaches altitude 10° 22:28:17 10° 230° (SW) 2,052 4.1 -8.2°
Maximum altitude 22:30:41 14° 263° (W) 1,777 3.8 -7.7°
Drops below altitude 10° 22:33:04 10° 296° (WNW) 2,043 4.4 -7.2°
Sets 22:36:15 0° 320° (NW) 2,942 5.4 -6.6°
